📊 Raw Sensor Data

Showing records 45376 to 45400 of 85,052 total

ID Distance (ft) Battery V Battery A Int Temp (°F) Int Humid (%) Ext Temp (°F) Solar V RSSI SNR Time Stamp
39689 -- 4.01 0 85 44 79 5.10 -70 8 05/04/2025 05:45 PM
39688 15.7 4.14 0 86 43 80 5.10 -71 8 05/04/2025 05:30 PM
39687 15.6 4.01 0 87 42 80 5.10 -70 8 05/04/2025 05:15 PM
39686 15.6 4.14 0 85 43 79 5.10 -70 8 05/04/2025 05:00 PM
39685 15.6 4.01 0 85 43 79 5.10 -70 8 05/04/2025 04:45 PM
39684 15.6 4.01 0 87 42 79 5.10 -71 7 05/04/2025 04:30 PM
39683 15.6 4.01 0 86 42 79 5.10 -70 8 05/04/2025 04:15 PM
39682 15.6 4.01 0 86 42 79 5.10 -70 7 05/04/2025 04:00 PM
39681 15.6 4.07 0 86 41 79 5.10 -72 7 05/04/2025 03:45 PM
39680 15.5 4.10 0 86 41 79 5.10 -72 8 05/04/2025 03:30 PM
39679 15.5 4.01 0 85 40 79 5.10 -69 8 05/04/2025 03:15 PM
39678 15.5 4.01 0 84 40 78 5.10 -71 8 05/04/2025 03:00 PM
39677 15.5 4.01 0 84 40 78 5.10 -70 8 05/04/2025 02:45 PM
39676 15.5 4.01 0 82 40 76 5.10 -70 8 05/04/2025 02:30 PM
39675 15.5 4.01 0 81 40 77 5.10 -71 7 05/04/2025 02:15 PM
39674 15.5 4.08 0 81 40 75 5.10 -71 7 05/04/2025 02:00 PM
39673 15.5 4.01 0 80 40 74 5.10 -72 8 05/04/2025 01:45 PM
39672 15.5 4.01 0 79 40 74 5.10 -71 8 05/04/2025 01:30 PM
39671 15.5 4.01 0 79 40 75 5.10 -75 7 05/04/2025 01:15 PM
39670 -- 4.01 0 78 41 75 5.10 -72 9 05/04/2025 01:00 PM
39669 -- 4.01 0 76 41 73 5.10 -73 8 05/04/2025 12:30 PM
39668 15.5 4.01 0 75 41 72 5.10 -74 8 05/04/2025 12:15 PM
39667 -- 4.01 0 75 41 74 5.10 -73 9 05/04/2025 12:00 PM
39666 -- 4.13 0 74 41 71 5.10 -72 9 05/04/2025 11:45 AM
39665 -- 4.01 0 73 41 71 5.10 -74 8 05/04/2025 11:30 AM